Location: Shannon
(40.5500°S, 175.4167°E)
Time: 21:17:13
(UTC+00:00)

Cosmos 1939 Rocket - Pass Details

Date: 17 November 2025
Orbit: 491 x 528 km, 97.5° (Epoch: 14 December)

Event Time Altitude Azimuth Distance (km) Brightness Sun altitude
Rises 15:53:16 0° 18° (NNE) 2,593 6.1 -9.9°
Reaches altitude 10° 15:55:20 10° 20° (NNE) 1,712 5.2 -9.6°
Maximum altitude 15:59:00 71° 104° (ESE) 539 3.0 -9.1°
Drops below altitude 10° 16:02:42 10° 187° (S) 1,725 5.7 -8.5°
Sets 16:04:48 0° 189° (S) 2,615 6.6 -8.1°
